This demonstration page uses our WeatherBlox Daily Observations layout. Learn more.

Left ArrowRight Arrow

41.55636, -103.73856

Hourly Observations for July 4, 2015

Temp ( °F °C ) Dew Point ( °F °C ) Humidity (%) Winds ( mph kmh ) Pressure ( in mb ) Visibility ( mi km ) Precip ( " mm )
12:53 am 00:53 Clear 68 20 57 13.9 68 68 ESE 7 11 29.85 1011 9 14.48406 0 0
1:53 am 01:53 Partly Cloudy 70 21.1 58 14.4 66 66 ESE 5 7 29.86 1011 8 12.87472 0 0
2:53 am 02:53 Clear 68 20 59 15 73 73 ESE 10 17 29.81 1010 8 12.87472 0 0
3:53 am 03:53 Clear 67 19.4 60 15.6 79 79 E 8 13 29.8 1009 8 12.87472 0 0
4:53 am 04:53 Clear 66 18.9 60 15.6 81 81 ESE 10 17 29.8 1009 8 12.87472 0 0
5:53 am 05:53 Sunny 65 18.3 60 15.6 84 84 ESE 10 17 29.79 1009 7 11.26538 0 0
6:53 am 06:53 Sunny 67 19.4 61 16.1 81 81 ESE 10 17 29.79 1009 7 11.26538 0 0
7:53 am 07:53 Sunny 70 21.1 61 16.1 73 73 ESE 9 15 29.8 1009 7 11.26538 0 0
8:53 am 08:53 Sunny 73 22.8 61 16.1 66 66 VRB 6 9 29.79 1009 10 16.0934 0 0
9:53 am 09:53 Sunny 77 25 62 16.7 60 60 VRB 6 9 29.78 1009 10 16.0934 0 0
10:53 am 10:53 Sunny 81 27.2 64 17.8 57 57 ESE 9 15 29.77 1008 10 16.0934 0 0
11:53 am 11:53 Sunny 86 30 64 17.8 48 48 SE 10 17 29.75 1008 10 16.0934 0 0
12:53 pm 12:53 Sunny 90 32.2 64 17.8 42 42 ESE 12 19 29.73 1007 10 16.0934 0 0
1:53 pm 13:53 Sunny 93 33.9 58 14.4 31 31 ESE 9 15 29.71 1006 10 16.0934 0 0
2:53 pm 14:53 Sunny 95 35 52 11.1 23 23 SE 10 17 29.69 1006 10 16.0934 0 0
3:53 pm 15:53 Sunny 97 36.1 50 10 20 20 S 13 20 29.66 1005 10 16.0934 0 0
4:53 pm 16:53 Mostly Sunny 95 35 49 9.4 21 21 SE 12 19 29.66 1004 10 16.0934 0 0
5:29 pm 17:29 Mostly Cloudy with Nearby Thunderstorms 92 33.3 50 10 24 24 SSE 12 19 29.47 998 10 16.0934 0 0
5:53 pm 17:53 Mostly Cloudy with Nearby Thunderstorms 93 33.9 50 10 23 23 SSE 13 20 29.63 1004 10 16.0934 0 0
6:04 pm 18:04 Mostly Cloudy with Thunderstorms 91 33 50 10 24 24 VRB 6 9 29.44 997 10 16.0934 0 0
6:18 pm 18:18 Cloudy with Thunderstorms 79 26 55 13 45 45 NE 40 65 29.59 1002 3 4.82802 0 0
6:29 pm 18:29 Cloudy with Heavy Thunderstorms 70 21.1 61 16.1 73 73 E 36 57 29.65 1004 1.75 2.816345 0 0.0254
6:34 pm 18:34 Windy with Storms Likely 72 22 64 18 78 78 ESE 32 52 29.65 1004 3 4.82802 0 0
6:44 pm 18:44 Windy with Storms Likely 73 23 64 18 74 74 SE 24 39 29.62 1003 10 16.0934 0 0
6:49 pm 18:49 Partly Cloudy with Nearby Thunderstorms 73 23 64 18 74 74 SE 12 19 29.59 1002 10 16.0934 0.04 1.016
6:53 pm 18:53 Partly Cloudy with Nearby Thunderstorms 74 23.3 66 18.9 76 76 E 7 11 29.71 1006 10 16.0934 0.04 1.016
7:10 pm 19:10 Sunny 73 23 63 17 69 69 SSE 9 15 29.59 1002 10 16.0934 0 0
7:53 pm 19:53 Sunny 73 22.8 59 15 62 62 ESE 7 11 29.71 1006 10 16.0934 0 0
8:53 pm 20:53 Clear 71 21.7 65 18.3 81 81 NE 6 9 29.72 1006 10 16.0934 0 0
9:53 pm 21:53 Partly Cloudy 71 21.7 64 17.8 79 79 E 6 9 29.73 1007 10 16.0934 0 0
10:53 pm 22:53 Mostly Cloudy 72 22.2 62 16.7 71 71 E 6 9 29.73 1007 10 16.0934 0 0
11:53 pm 23:53 Clear 70 21.1 62 16.7 76 76 ENE 7 11 29.71 1006 10 16.0934 0 0

Powered by AerisWeather